CAPE
9 21 0 1 9 19 0 0 0 0 0 0 0 0 0 0 0 0 0 0 0 0 0 0 0 0 0 0 0 0 0 0 0 0 0 0 0 0 0 0 0 0 0 0
23 1 6 0 0 6 22 4 0 0 0 1 0 0 0 0 0 0 0 0 0 0 0 0 0 0 0 0 0 0 0 0 0 0 0 0 0 0 0 0 0 0 0 0
3 0 6 8 8 12 5 1 4 0 0 0 2 0 0 0 0 0 0 0 0 0 0 0 0 0 0 0 0 0 0 0 0 0 0 0 0 0 0 0 0 0 0 0
21 0 1 3 7 10 0 0 8 21 2 0 3 0 0 0 0 0 0 0 0 0 0 0 0 0 0 0 0 0 0 0 0 0 0 0 0 1 0 1 1 0 0 0
0 4 2 5 2 15 4 15 18 16 9 2 0 0 0 0 0 0 0 0 0 0 0 0 0 0 0 0 0 0 0 0 0 0 0 0 0 0 0 0 0 0 0 0
0 0 6 4 2 4 6 11 17 28 12 4 0 0 0 0 0 0 0 0 0 0 0 0 0 0 0 0 0 0 0 0 0 0 0 0 0 0 0 0 0 0 0 1
2 0 11 12 5 29 13 5 0 0 1 0 0 0 0 0 0 0 0 0 0 0 0 0 0 0 0 0 0 0 0 0 0 0 0 0 0 0 0 0 0 0 0 1
3 1 5 10 3 0 14 12 0 0 0 0 0 0 0 0 0 0 0 0 0 0 0 0 0 0 0 0 0 0 0 0 0 0 0 0 0 0 0 0 0 0 0 0
0 10 0 1 6 14 16 37 0 0 0 0 0 0 0 0 0 0 0 0 0 0 0 0 0 0 0 0 0 0 0 0 0 0 0 0 0 0 0 0 0 0 0 0
2 0 1 0 0 3 8 0 0 0 0 0 0 0 0 0 0 0 0 0 0 0 0 0 0 0 0 0 0 0 0 0 0 0 0 0 0 0 0 0 0 0 0 0
4 2 0 1 3 1 3 2 1 1 0 0 0 0 0 0 0 0 0 0 0 0 0 0 0 0 0 0 0 0 0 0 0 0 0 0 0 0 0 0 0 0 0 0
5 0 0 0 0 2 4 1 2 0 0 0 0 0 0 0 0 0 0 0 0 0 0 0 0 0 0 0 0 0 0 0 0 0 0 0 0 0 0 0 0 0 0 0
4 0 0 0 0 0 5 4 12 3 0 0 0 0 0 0 0 0 0 0 0 0 0 0 0 0 0 0 0 0 0 0 0 0 0 0 0 0 0 0 0 0 0 1
23 4 0 0 0 0 0 7 3 4 1 0 0 0 0 0 0 0 0 0 0 0 0 0 0 0 0 0 0 0 0 0 0 0 0 0 0 0 0 0 0 0 0 1
18 1 2 0 0 0 0 1 1 1 0 0 0 0 0 0 0 0 0 0 0 0 0 0 0 0 0 0 0 0 0 0 0 0 0 0 0 0 0 0 0 0 0 0
0 0 0 0 0 1 0 0 0 2 0 9 0 0 0 0 0 0 0 0 0 0 0 0 0 0 0 0 0 0 0 0 0 0 0 0 0 0 0 0 0 0 0 0
1 2 0 0 0 0 0 0 0 0 0 0 0 0 0 0 0 0 0 0 0 0 0 0 0 0 0 0 0 0 0 0 0 0 0 0 0 0 0 0 0 0 0 0
0 0 7 0 0 0 0 0 0 0 0 0 0 0 0 0 0 0 0 0 0 0 0 0 0 0 0 0 0 0 0 0 0 0 0 0 0 0 0 0 0 0 0 0
0 0 0 0 0 0 0 0 0 0 0 0 0 0 0 0 0 0 0 0 0 0 0 0 0 0 0 0 0 0 0 0 0 0 0 0 0 0 0 0 0 0 0 0
0 2 2 0 1 0 0 0 0 0 0 0 0 0 0 0 0 0 0 0 0 0 0 0 0 0 0 0 0 0 0 0 0 0 0 0 0 0 0 0 0 0 0 0
0 2 0 2 1 0 0 0 0 0 0 0 0 0 0 0 0 0 0 0 0 0 0 0 0 0 0 0 0 0 0 0 0 0 0 0 0 0 0 0 0 0 0 0
0 0 0 1 0 0 0 0 0 0 0 0 0 0 0 0 0 0 0 0 0 0 0 0 0 0 0 0 0 0 0 0 0 0 0 0 0 0 0 0 0 0 0 0
0 0 0 0 0 0 0 0 0 0 0 0 0 0 0 0 0 0 0 0 0 0 0 0 0 0 0 0 0 0 0 0 0 0 0 0 0 0 0 0 0 0 0 0
0 0 0 3 0 0 0 0 0 0 0 0 0 0 0 0 0 0 0 0 0 0 0 0 0 0 0 0 0 0 0 0 0 0 0 0 0 0 0 0 0 0 0 0
0 0 0 0 0 0 0 0 0 0 0 0 0 0 0 0 0 0 0 0 0 0 0 0 0 0 0 0 0 0 0 0 0 0 0 0 0 0 0 0 0 0 0 0
0 0 0 0 0 0 0 0 0 0 0 0 0 0 0 0 0 0 0 0 0 0 0 0 0 0 0 0 0 0 0 0 0 0 0 0 0 0 1 1 2 2 1 2
CIN
-6 -0 -0 -1 -5 -1 -0 -0 -0 -2 -0 -0 -0 -0 -0 -0 -0 -0 -0 -0 -0 -0 -0 -0 -0 -0 -0 -0 -0 -0 -0 -0 -0 -0 -0 -0 -0 -0 -0 -0 -0 -0 -0 -0
-0 -0 -0 -0 -0 -2 -4 -6 -0 -0 -0 -1 -0 -0 -0 -0 -0 -0 -0 -0 -0 -0 -0 -0 -0 -0 -0 -0 -0 -0 -0 -0 -0 -0 -0 -0 -0 -0 -0 -0 -0 -0 -0 -0
-0 -1 -1 -6 -3 -0 -0 -0 -0 -0 -0 -0 -10 -0 -0 -0 -0 -0 -0 -0 -0 -0 -0 -0 -0 -0 -0 -0 -0 -0 -0 -0 -0 -0 -0 -0 -0 -0 -0 -0 -0 -0 -0 -0
-2 -1 -0 -0 -0 -2 -3 -0 -3 -3 -3 -0 -8 -0 -0 -0 -0 -0 -0 -0 -0 -0 -0 -0 -0 -0 -0 -0 -0 -0 -0 -0 -0 -0 -0 -0 -0 -0 -0 -0 -0 -0 -0 -0
-0 -8 -9 -0 -1 -1 -0 -0 -3 -11 -3 -11 -0 -2 -0 -0 -0 -0 -0 -0 -0 -0 -0 -0 -0 -0 -0 -0 -0 -0 -0 -0 -0 -0 -0 -0 -0 -0 -0 -0 -0 -0 -0 -0
-0 -1 -3 -2 -2 -4 -2 -0 -1 -1 -1 -0 -0 -0 -0 -0 -0 -0 -0 -0 -0 -0 -0 -0 -0 -0 -0 -0 -0 -0 -0 -0 -0 -0 -0 -0 -0 -0 -0 -0 -0 -0 -0 -0
-2 -0 -4 -2 -1 -1 -0 -0 -0 -0 -2 -0 -0 -0 -0 -0 -0 -0 -0 -0 -0 -0 -0 -0 -0 -0 -0 -0 -0 -0 -0 -0 -0 -0 -0 -0 -0 -0 -0 -0 -0 -0 -0 -0
-1 -0 -0 -3 -0 -0 -1 -1 -2 -0 -0 -0 -0 -0 -0 -0 -0 -0 -0 -0 -0 -0 -0 -0 -0 -0 -0 -0 -0 -0 -0 -0 -0 -0 -0 -0 -0 -0 -0 -0 -0 -0 -0 -0
-0 -1 -3 -7 -8 -6 -7 -0 -0 -1 -0 -0 -0 -0 -0 -0 -0 -0 -0 -0 -0 -0 -0 -0 -0 -0 -0 -0 -0 -0 -0 -0 -0 -0 -0 -0 -0 -0 -0 -0 -0 -0 -0 -0
-0 -3 -5 -14 -0 -1 -0 -0 -0 -0 -0 -0 -0 -0 -0 -0 -0 -0 -0 -0 -0 -0 -0 -0 -0 -0 -0 -0 -0 -0 -0 -0 -0 -0 -0 -0 -0 -0 -0 -0 -0 -0 -0 -0
-0 -0 -0 -1 -0 -0 -1 -0 -2 -1 -0 -0 -0 -0 -0 -0 -0 -0 -0 -0 -0 -0 -0 -0 -0 -0 -0 -0 -0 -0 -0 -0 -0 -0 -0 -0 -0 -0 -0 -0 -0 -0 -0 -0
-0 -0 -0 -4 -0 -3 -0 -0 -0 -1 -0 -0 -0 -0 -0 -0 -0 -0 -0 -0 -0 -0 -0 -0 -0 -0 -0 -0 -0 -0 -0 -0 -0 -0 -0 -0 -0 -0 -0 -0 -0 -0 -0 -0
-1 -0 -0 -0 -0 -0 -2 -0 -1 -1 -1 -0 -0 -0 -0 -0 -0 -0 -0 -0 -0 -0 -0 -0 -0 -0 -0 -0 -0 -0 -0 -0 -0 -0 -0 -0 -0 -0 -0 -0 -0 -0 -0 -0
-18 -3 -0 -0 -0 -0 -0 -0 -0 -3 -2 -0 -0 -0 -0 -0 -0 -0 -0 -0 -0 -0 -0 -0 -0 -0 -0 -0 -0 -0 -0 -0 -0 -0 -0 -0 -0 -0 -0 -0 -0 -0 -0 -0
-0 -3 -2 -0 -0 -0 -0 -0 -0 -0 -0 -1 -0 -0 -0 -0 -0 -0 -0 -0 -0 -0 -0 -0 -0 -0 -0 -0 -0 -0 -0 -0 -0 -0 -0 -0 -0 -0 -0 -0 -0 -0 -0 -0
-0 -0 -0 -0 -0 -0 -0 -0 -0 -0 -0 -0 -0 -0 -0 -0 -0 -0 -0 -0 -0 -0 -0 -0 -0 -0 -0 -0 -0 -0 -0 -0 -0 -0 -0 -0 -0 -0 -0 -0 -0 -0 -0 -0
-5 -5 -0 -0 -0 -0 -0 -0 -0 -0 -0 -0 -0 -0 -0 -0 -0 -0 -0 -0 -0 -0 -0 -0 -0 -0 -0 -0 -0 -0 -0 -0 -0 -0 -0 -0 -0 -0 -0 -0 -0 -0 -0 -0
-0 -2 -6 -2 -0 -0 -0 -0 -0 -0 -0 -0 -0 -0 -0 -0 -0 -0 -0 -0 -0 -0 -0 -0 -0 -0 -0 -0 -0 -0 -0 -0 -0 -0 -0 -0 -0 -0 -0 -0 -0 -0 -0 -0
-0 -0 -0 -0 -0 -0 -0 -0 -0 -0 -0 -0 -0 -0 -0 -0 -0 -0 -0 -0 -0 -0 -0 -0 -0 -0 -0 -0 -0 -0 -0 -0 -0 -0 -0 -0 -0 -0 -0 -0 -0 -0 -0 -0
-0 -3 -1 -0 -1 -0 -0 -0 -0 -0 -0 -0 -0 -0 -0 -0 -0 -0 -0 -0 -0 -0 -0 -0 -0 -0 -0 -0 -0 -0 -0 -0 -0 -0 -0 -0 -0 -0 -0 -0 -0 -0 -0 -0
-0 -1 -0 -2 -4 -0 -0 -0 -0 -0 -0 -0 -0 -0 -0 -0 -0 -0 -0 -0 -0 -0 -0 -0 -0 -0 -0 -0 -0 -0 -0 -0 -0 -0 -0 -0 -0 -0 -0 -0 -0 -0 -0 -0
-0 -0 -0 -3 -0 -0 -0 -0 -0 -0 -0 -0 -0 -0 -0 -0 -0 -0 -0 -0 -0 -0 -0 -0 -0 -0 -0 -0 -0 -0 -0 -0 -0 -0 -0 -0 -0 -0 -0 -0 -0 -0 -0 -0
-0 -0 -0 -0 -0 -0 -0 -0 -0 -0 -0 -0 -0 -0 -0 -0 -0 -0 -0 -0 -0 -0 -0 -0 -0 -0 -0 -0 -0 -0 -0 -0 -0 -0 -0 -0 -0 -0 -0 -0 -0 -0 -0 -0
-0 -0 -0 -9 -0 -0 -0 -0 -0 -0 -0 -0 -0 -0 -0 -0 -0 -0 -0 -0 -0 -0 -0 -0 -0 -0 -0 -0 -0 -0 -0 -0 -0 -0 -0 -0 -0 -0 -0 -0 -0 -0 -0 -0
-0 -0 -0 -0 -0 -0 -0 -0 -0 -0 -0 -0 -0 -0 -0 -0 -0 -0 -0 -0 -0 -0 -0 -0 -0 -0 -0 -0 -0 -0 -0 -0 -0 -0 -0 -0 -0 -0 -0 -0 -0 -0 -0 -0
-0 -0 -0 -0 -0 -0 -0 -0 -0 -0 -0 -0 -0 -0 -0 -0 -0 -0 -0 -0 -0 -0 -0 -0 -0 -0 -0 -0 -0 -0 -0 -0 -0 -0 -0 -0 -0 -0 -0 -0 -0 -0 -0 -0
Wind_Speed
24 30 40 36 36 41 51 46 50 42 38 42 49 52 50 43 44 55 51 49 47 45 49 37 36 34 30 22 19 18 18 18 17 17 17 18 16 16 14 12 11 11 10 9
31 43 36 32 37 42 50 51 56 47 40 42 50 56 51 48 48 49 55 52 50 48 46 43 33 26 27 29 22 23 20 20 19 19 19 21 20 20 17 15 13 13 12 12
34 33 34 31 34 40 51 62 55 52 41 43 50 63 55 50 50 50 54 53 56 55 52 48 34 22 22 21 22 23 23 23 23 22 22 22 22 23 19 18 18 18 16 14
38 41 28 31 39 34 52 49 50 48 45 55 37 65 54 46 49 46 51 51 52 54 49 48 45 39 28 24 26 24 23 24 24 23 23 22 20 20 19 19 19 20 17 16
36 32 37 39 33 29 35 36 43 43 45 48 51 54 52 41 49 48 48 52 51 49 43 47 44 42 38 34 28 27 25 24 24 24 23 22 21 20 20 19 20 19 18 17
41 29 27 34 30 29 31 37 36 39 41 58 56 51 64 52 47 43 44 43 40 40 41 48 47 43 36 31 28 27 27 25 23 23 24 23 22 20 20 19 18 18 17 17
37 46 36 31 36 31 28 29 35 38 44 58 44 50 70 45 38 37 35 36 36 38 39 40 37 27 24 25 24 25 25 26 24 24 24 24 23 22 20 19 18 17 16 16
42 38 36 31 39 40 37 33 43 52 54 53 39 58 56 43 44 47 45 42 38 38 37 37 38 35 23 21 22 23 24 25 25 25 25 23 24 25 22 20 19 17 17 17
39 43 25 28 28 28 30 36 30 37 33 43 44 52 51 50 48 43 46 41 45 45 41 42 38 35 35 26 20 22 22 22 22 21 21 22 23 22 21 20 19 19 17 17
24 36 32 29 28 32 29 20 30 27 42 52 56 59 61 45 43 36 38 41 40 42 44 41 40 38 33 27 22 21 22 23 22 21 21 21 22 21 21 21 20 19 18 17
28 30 29 25 31 31 30 34 31 31 35 49 60 57 44 47 46 43 40 36 34 38 40 43 40 37 31 27 25 24 25 26 26 24 24 24 23 23 23 22 20 19 19 18
30 26 39 37 29 33 34 36 34 40 47 44 55 76 44 38 36 31 33 35 32 33 37 35 35 32 30 30 25 26 26 27 26 25 25 25 26 25 24 22 22 22 21 20
29 32 34 33 34 29 35 34 34 35 33 48 54 73 38 43 44 33 30 33 34 31 32 31 30 33 33 32 28 27 27 26 26 24 23 24 25 26 25 24 24 23 22 22
22 36 39 42 32 26 33 34 35 35 39 48 48 71 56 46 37 37 37 35 34 33 33 32 31 31 32 32 31 30 30 27 24 22 23 24 24 25 25 25 25 24 24 24
28 36 38 43 36 32 32 33 35 41 44 43 57 64 58 49 49 51 43 41 38 37 36 34 33 32 29 28 28 27 27 26 24 23 24 25 24 24 24 25 25 26 26 25
27 32 26 29 38 44 44 40 38 37 41 44 56 62 56 45 48 53 52 43 46 45 40 35 33 31 27 27 26 25 24 23 21 21 22 22 22 21 22 23 23 24 25 24
27 30 32 37 28 29 38 43 40 44 40 37 51 62 57 47 48 52 58 59 51 46 43 37 35 30 26 23 21 20 20 18 18 18 18 18 19 20 20 20 20 21 21 20
27 28 30 37 30 43 36 31 32 34 39 39 51 63 59 52 49 48 46 49 51 48 43 39 35 27 25 22 19 17 16 16 16 17 17 18 19 21 20 20 21 21 20 20
24 26 32 37 37 43 49 32 28 30 48 35 37 54 57 52 51 59 49 44 47 46 46 39 32 30 27 25 23 21 19 18 18 19 20 21 21 21 22 22 22 22 22 21
27 27 31 31 37 43 37 24 23 21 54 33 36 55 53 41 47 59 50 42 46 48 47 45 39 33 34 30 26 24 24 23 24 23 24 24 24 24 25 25 24 23 22 22
30 31 37 37 40 45 34 29 20 34 44 24 28 34 36 35 37 48 42 35 34 38 39 38 38 39 36 32 29 27 26 27 26 27 28 28 28 29 27 26 25 26 26 25
26 28 34 33 37 51 27 25 30 36 40 38 41 40 42 43 47 47 48 39 36 36 34 32 32 34 36 35 32 30 29 28 29 29 30 29 30 30 29 29 29 27 25 26
29 25 28 28 33 27 23 28 28 33 38 38 41 40 41 43 43 42 43 40 36 30 27 26 28 30 31 33 34 34 32 30 30 30 30 30 29 30 28 27 27 26 25 25
26 24 32 31 32 33 35 32 33 35 40 41 40 42 40 41 41 40 37 34 31 27 24 23 22 26 30 31 32 32 31 31 31 31 30 29 28 26 24 22 22 23 23 23
25 22 29 37 36 37 36 34 39 41 40 42 41 38 40 41 40 38 35 32 28 26 24 22 23 23 25 28 29 30 30 29 30 28 26 23 20 19 18 18 19 19 20 20
22 27 31 40 32 34 37 35 40 41 41 40 42 43 40 39 39 36 34 31 27 25 24 22 21 22 20 21 25 28 28 26 24 23 20 18 17 16 15 14 15 15 15 15
Wind_Direction
258 257 253 253 259 262 257 258 259 265 271 270 266 265 266 274 269 256 259 261 261 262 249 265 263 261 262 258 250 249 243 245 246 247 250 257 251 258 254 248 240 227 230 231
258 255 263 264 262 260 257 256 256 263 270 268 268 264 268 270 268 262 255 259 260 260 259 262 266 264 259 259 249 251 245 247 244 250 253 262 263 265 259 256 241 235 242 254
256 270 257 263 262 260 256 252 256 262 269 271 274 263 264 268 268 266 258 260 257 255 255 257 267 254 252 240 242 243 243 247 249 251 260 265 270 274 266 259 259 260 257 250
260 256 265 257 258 263 260 257 260 262 265 262 273 259 262 269 266 267 261 264 259 257 259 259 262 265 261 245 257 251 247 245 249 248 252 247 250 251 258 263 265 267 258 251
255 266 251 257 260 264 268 268 259 260 261 262 262 262 259 268 267 265 265 262 260 257 258 259 263 264 264 263 257 254 252 249 246 244 240 246 246 254 266 266 268 264 264 255
253 265 262 258 261 260 276 269 266 263 263 258 257 260 253 258 269 274 275 268 265 260 259 259 261 264 267 262 257 254 249 246 243 236 231 232 232 245 260 261 262 266 263 264
256 253 260 259 258 262 255 260 258 254 253 252 259 257 246 260 274 276 282 277 268 262 261 260 265 264 250 249 244 247 244 245 242 241 239 231 235 246 247 253 257 261 259 260
248 253 249 255 253 258 252 253 256 256 256 259 263 252 253 264 270 264 268 269 267 261 263 263 263 267 266 247 240 233 233 244 246 244 238 240 246 255 252 254 259 257 259 260
250 253 261 253 258 252 258 252 258 264 270 262 259 257 265 267 268 277 266 267 259 251 258 257 262 267 268 270 251 229 233 239 243 235 240 239 247 245 246 252 256 261 264 270
263 253 256 257 254 256 260 254 258 260 261 259 256 258 255 266 273 278 280 275 271 265 259 261 261 264 269 271 267 256 243 238 240 239 242 243 241 244 251 260 258 260 268 266
258 259 260 256 249 247 250 255 262 270 270 262 258 257 267 268 275 276 279 283 287 276 270 266 267 265 271 275 268 264 259 256 255 255 254 253 253 253 258 260 261 263 268 269
247 267 254 254 270 256 256 258 257 263 265 268 264 254 268 278 291 292 281 283 294 288 281 282 272 274 272 272 272 266 263 261 260 260 259 256 258 259 260 261 265 270 269 271
244 257 259 259 264 261 257 256 259 263 277 265 263 253 275 276 277 282 287 292 294 293 289 286 281 274 273 271 270 268 265 266 265 262 261 261 261 261 263 266 268 271 272 273
251 254 256 256 265 264 258 259 259 262 265 268 270 259 269 273 276 275 281 288 296 296 294 289 287 283 278 272 268 267 266 267 266 266 266 265 265 265 268 271 273 274 276 277
254 257 259 259 265 270 271 264 260 261 265 270 267 266 269 273 271 271 277 283 288 294 293 292 288 287 283 278 270 268 267 264 264 266 268 268 270 273 276 278 279 281 282 283
257 259 265 272 265 266 266 269 266 264 267 269 269 270 272 279 276 270 268 277 280 288 288 292 289 288 286 278 271 267 266 266 267 266 268 272 274 277 279 283 284 286 287 288
256 259 266 267 278 278 272 263 265 265 266 267 268 251 257 283 278 273 265 268 277 282 278 285 285 283 282 278 274 269 266 266 265 267 271 275 278 282 285 289 291 292 293 295
261 263 268 270 278 269 275 282 272 268 270 270 270 257 265 277 282 277 274 272 272 271 274 277 283 275 273 275 273 269 267 266 268 272 277 281 284 286 290 291 292 295 298 297
265 266 269 269 271 276 271 280 280 281 276 272 271 245 255 278 282 266 274 275 271 270 267 271 279 267 269 268 268 265 265 267 272 277 282 285 286 289 291 293 294 298 299 300
264 268 267 272 271 270 282 289 291 290 272 287 275 259 276 285 278 260 273 281 277 272 266 264 265 264 261 265 268 267 267 270 274 280 284 288 290 291 293 295 296 300 301 300
258 261 261 267 273 275 283 287 289 280 275 303 299 288 291 288 284 275 285 290 283 277 272 269 264 260 260 264 268 267 268 271 278 283 287 289 291 292 293 294 295 295 296 297
262 261 265 267 272 271 290 286 275 284 290 292 290 292 290 289 281 282 279 290 285 283 280 273 268 262 261 264 266 267 270 276 282 286 287 290 291 291 292 291 293 294 295 295
269 270 271 266 273 284 293 294 296 295 291 293 293 296 297 290 290 291 287 285 289 292 289 282 270 267 267 267 268 268 274 279 282 285 287 290 293 294 295 294 293 294 294 294
277 278 274 279 280 282 287 292 298 298 293 294 295 294 294 294 293 293 294 297 294 293 295 293 284 272 270 272 271 272 276 278 280 283 287 290 293 297 299 300 299 298 298 297
282 283 280 278 282 287 287 291 295 296 298 295 292 295 294 292 291 292 292 296 299 298 298 296 290 286 279 276 277 278 279 280 282 285 288 291 295 298 302 307 306 308 309 305
285 283 280 279 290 290 290 291 296 294 295 297 294 290 293 292 290 291 291 292 293 296 299 298 295 292 294 290 284 283 284 283 282 282 286 290 294 297 302 310 320 333 332 333